Maxwelton, WV

7:55 AM EDT on August 28, 2016 (GMT -0400)
Greenbrier Valley

Weather History for KLWB - December, 2014

Change the Weather History Date:

Friday, December 19, 2014

  Actual Average Record
Temperature  
Mean Temperature 30 °F 30 °F  
Max Temperature 37 °F 40 °F 64 °F (1990)
Min Temperature 22 °F 21 °F 1 °F (1964)
Degree Days  
Heating Degree Days 35    
Month to date heating degree days 500  
Since 1 July heating degree days 1712  
Cooling Degree Days 0    
Month to date cooling degree days 0  
Year to date cooling degree days 619  
Moisture  
Dew Point 22 °F    
Average Humidity 72    
Maximum Humidity 88    
Minimum Humidity 56    
Precipitation  
Precipitation 0.00 in 0.10 in 0.70 in (1961)
Month to date precipitation 1.05 2.01  
Year to date precipitation 25.45 38.83  
Snow  
Snow 0.00 in - - ()
Month to date snowfall T  
Since 1 July snowfall 2.0  
Snow Depth 0.00 in    
Sea Level Pressure  
Sea Level Pressure 30.14 in    
Wind  
Wind Speed 4 mph (West)    
Max Wind Speed 10 mph    
Max Gust Speed -    
Visibility 10 miles    
Events      
T = Trace of Precipitation, MM = Missing Value Source: NWS Daily Summary

Daily Weather History Graph

Daily Weather History Graph

Search for Another Location

Airport or City:

Trip Planner

Search our weather history database for the weather conditions in past years. The results will help you decide how hot, cold, wet, or windy it might be!

Date:

Astronomy

Dec. 19, 2014 Rise Set
Actual Time 7:32 AM EST 5:05 PM EST
Civil Twilight 7:03 AM EST 5:34 PM EST
Nautical Twilight 6:30 AM EST 6:07 PM EST
Astronomical Twilight 5:58 AM EST 6:39 PM EST
Moon 4:47 AM EST (12/19) 3:24 PM EST (12/19)
Length of Visible Light 10h 31m
Length of Day
9h 32m
Waning Crescent, 7% of the Moon is Illuminated
Dec 19
Waning Crescent
Dec 21
New
Dec 28
First Quarter
Jan 4
Full
Jan 13
Last Quarter

Hourly Weather History & Observations

Time (EST) Temp. Windchill Dew Point Humidity Pressure Visibility Wind Dir Wind Speed Gust Speed Precip Events Conditions
12:15 AM 30.9 °F 25.2 °F 23.0 °F 72% 30.10 in 10.0 mi West 5.8 mph - N/A   Overcast
12:35 AM 30.6 °F 25.8 °F 23.0 °F 74% 30.10 in 10.0 mi West 4.6 mph - N/A   Mostly Cloudy
12:55 AM 30.2 °F 25.4 °F 23.0 °F 75% 30.10 in 10.0 mi West 4.6 mph - N/A   Mostly Cloudy
1:15 AM 30.0 °F 26.5 °F 23.0 °F 75% 30.10 in 10.0 mi WSW 3.5 mph - N/A   Mostly Cloudy
1:35 AM 29.3 °F 25.6 °F 22.5 °F 76% 30.10 in 10.0 mi WSW 3.5 mph - N/A   Scattered Clouds
1:55 AM 28.8 °F 25.0 °F 22.5 °F 77% 30.10 in 10.0 mi West 3.5 mph - N/A   Scattered Clouds
2:15 AM 28.4 °F - 22.1 °F 77% 30.11 in 10.0 mi Calm Calm - N/A   Scattered Clouds
2:35 AM 28.2 °F - 22.1 °F 78% 30.10 in 10.0 mi Calm Calm - N/A   Scattered Clouds
2:55 AM 27.5 °F 23.6 °F 21.9 °F 80% 30.10 in 10.0 mi WSW 3.5 mph - N/A   Clear
3:15 AM 27.3 °F 23.4 °F 21.7 °F 80% 30.10 in 10.0 mi West 3.5 mph - N/A   Mostly Cloudy
3:35 AM 27.5 °F 23.6 °F 21.6 °F 78% 30.10 in 10.0 mi West 3.5 mph - N/A   Mostly Cloudy
3:55 AM 27.7 °F - 21.7 °F 78% 30.10 in 10.0 mi Calm Calm - N/A   Overcast
4:15 AM 28.0 °F 22.8 °F 22.1 °F 78% 30.10 in 10.0 mi West 4.6 mph - N/A   Overcast
4:35 AM 27.9 °F 21.5 °F 22.1 °F 79% 30.10 in 10.0 mi West 5.8 mph - N/A   Mostly Cloudy
4:55 AM 27.5 °F 22.2 °F 22.1 °F 80% 30.10 in 10.0 mi West 4.6 mph - N/A   Scattered Clouds
5:15 AM 27.3 °F - 22.1 °F 81% 30.10 in 10.0 mi Calm Calm - N/A   Clear
5:35 AM 27.1 °F - 22.1 °F 81% 30.10 in 10.0 mi Calm Calm - N/A   Clear
5:55 AM 26.8 °F - 22.1 °F 83% 30.12 in 10.0 mi Calm Calm - N/A   Mostly Cloudy
6:15 AM 27.5 °F - 22.3 °F 81% 30.12 in 10.0 mi Calm Calm - N/A   Overcast
6:35 AM 27.7 °F - 22.1 °F 80% 30.12 in 10.0 mi Calm Calm - N/A   Overcast
6:55 AM 27.5 °F 23.6 °F 22.1 °F 80% 30.12 in 10.0 mi WSW 3.5 mph - N/A   Overcast
7:15 AM 27.1 °F 23.2 °F 21.9 °F 81% 30.13 in 10.0 mi West 3.5 mph - N/A   Scattered Clouds
7:35 AM 27.1 °F 23.2 °F 21.9 °F 81% 30.13 in 10.0 mi WSW 3.5 mph - N/A   Clear
7:55 AM 26.6 °F 20.0 °F 21.6 °F 81% 30.14 in 10.0 mi WSW 5.8 mph - N/A   Clear
8:15 AM 26.8 °F 19.3 °F 21.6 °F 81% 30.14 in 10.0 mi WSW 6.9 mph - N/A   Clear
8:35 AM 27.7 °F 21.3 °F 21.7 °F 78% 30.14 in 10.0 mi WSW 5.8 mph - N/A   Clear
8:55 AM 28.4 °F 21.2 °F 21.9 °F 77% 30.15 in 10.0 mi WSW 6.9 mph - N/A   Clear
9:15 AM 28.4 °F 23.3 °F 21.4 °F 75% 30.15 in 10.0 mi West 4.6 mph - N/A   Clear
9:35 AM 28.8 °F 20.9 °F 21.6 °F 74% 30.15 in 10.0 mi West 8.1 mph - N/A   Clear
9:55 AM 30.0 °F 22.4 °F 21.4 °F 70% 30.17 in 10.0 mi West 8.1 mph - N/A   Clear
10:15 AM 30.9 °F 24.3 °F 21.6 °F 68% 30.17 in 10.0 mi WNW 6.9 mph - N/A   Clear
10:35 AM 31.1 °F 23.7 °F 21.4 °F 67% 30.17 in 10.0 mi WSW 8.1 mph - N/A   Clear
10:55 AM 32.0 °F 24.2 °F 21.7 °F 66% 30.16 in 10.0 mi SW 9.2 mph - N/A   Clear
11:15 AM 32.2 °F 25.8 °F 21.7 °F 65% 30.15 in 10.0 mi WSW 6.9 mph - N/A   Clear
11:35 AM 32.9 °F 25.9 °F 22.1 °F 65% 30.14 in 10.0 mi West 8.1 mph - N/A   Clear
11:55 AM 33.8 °F 27.7 °F 22.3 °F 63% 30.14 in 10.0 mi West 6.9 mph - N/A   Clear
12:15 PM 33.4 °F 28.1 °F 22.3 °F 64% 30.13 in 10.0 mi West 5.8 mph - N/A   Clear
12:35 PM 34.3 °F 28.4 °F 22.8 °F 63% 30.12 in 10.0 mi West 6.9 mph - N/A   Clear
12:55 PM 34.9 °F 29.0 °F 23.0 °F 62% 30.12 in 10.0 mi West 6.9 mph - N/A   Clear
1:15 PM 35.8 °F 28.3 °F 23.5 °F 61% 30.12 in 10.0 mi WSW 10.4 mph - N/A   Clear
1:35 PM 35.8 °F 29.4 °F 23.5 °F 61% 30.12 in 10.0 mi WSW 8.1 mph - N/A   Clear
1:55 PM 36.1 °F 31.4 °F 23.0 °F 59% 30.12 in 10.0 mi West 5.8 mph - N/A   Clear
2:15 PM 35.8 °F 28.3 °F 22.6 °F 59% 30.13 in 10.0 mi West 10.4 mph - N/A   Clear
2:35 PM 35.6 °F 29.9 °F 22.8 °F 60% 30.13 in 10.0 mi West 6.9 mph - N/A   Clear
2:55 PM 35.1 °F 30.1 °F 22.8 °F 61% 30.13 in 10.0 mi WNW 5.8 mph - N/A   Clear
3:15 PM 34.7 °F 28.8 °F 22.8 °F 62% 30.12 in 10.0 mi WNW 6.9 mph - N/A   Clear
3:35 PM 33.6 °F 28.4 °F 22.5 °F 64% 30.12 in 10.0 mi West 5.8 mph - N/A   Clear
3:55 PM 33.3 °F 28.9 °F 22.1 °F 64% 30.12 in 10.0 mi West 4.6 mph - N/A   Clear
4:15 PM 33.1 °F 28.7 °F 22.3 °F 65% 30.11 in 10.0 mi West 4.6 mph - N/A   Clear
4:35 PM 32.4 °F 27.9 °F 22.5 °F 67% 30.12 in 10.0 mi West 4.6 mph - N/A   Clear
4:55 PM 31.8 °F 26.2 °F 22.3 °F 68% 30.13 in 10.0 mi West 5.8 mph - N/A   Clear
5:15 PM 31.1 °F 25.4 °F 22.1 °F 69% 30.14 in 10.0 mi West 5.8 mph - N/A   Clear
5:35 PM 30.4 °F 25.6 °F 22.1 °F 71% 30.15 in 10.0 mi West 4.6 mph - N/A   Clear
5:55 PM 30.0 °F 26.5 °F 22.1 °F 72% 30.15 in 10.0 mi West 3.5 mph - N/A   Clear
6:15 PM 29.1 °F 24.1 °F 21.9 °F 74% 30.17 in 10.0 mi West 4.6 mph - N/A   Clear
6:35 PM 28.9 °F 25.2 °F 21.9 °F 75% 30.17 in 10.0 mi West 3.5 mph - N/A   Clear
6:55 PM 28.4 °F 24.6 °F 21.7 °F 76% 30.17 in 10.0 mi West 3.5 mph - N/A   Clear
7:15 PM 27.9 °F - 21.4 °F 77% 30.19 in 10.0 mi Calm Calm - N/A   Clear
7:35 PM 27.5 °F 23.6 °F 21.4 °F 78% 30.19 in 10.0 mi West 3.5 mph - N/A   Clear
7:55 PM 27.3 °F - 21.2 °F 78% 30.18 in 10.0 mi Calm Calm - N/A   Clear
8:15 PM 25.7 °F - 20.7 °F 81% 30.18 in 10.0 mi Calm Calm - N/A   Clear
8:35 PM 26.6 °F - 21.2 °F 80% 30.19 in 10.0 mi Calm Calm - N/A   Clear
8:55 PM 26.2 °F - 21.0 °F 81% 30.19 in 10.0 mi Calm Calm - N/A   Clear
9:15 PM 26.6 °F 22.6 °F 21.2 °F 80% 30.19 in 10.0 mi WNW 3.5 mph - N/A   Clear
9:35 PM 26.4 °F - 21.0 °F 80% 30.18 in 10.0 mi Calm Calm - N/A   Clear
9:55 PM 25.5 °F - 20.5 °F 81% 30.19 in 10.0 mi Calm Calm - N/A   Clear
10:15 PM 24.1 °F - 20.3 °F 85% 30.19 in 10.0 mi Calm Calm - N/A   Clear
10:35 PM 24.1 °F - 19.9 °F 84% 30.19 in 10.0 mi Calm Calm - N/A   Clear
10:55 PM 22.8 °F - 19.4 °F 87% 30.19 in 10.0 mi Calm Calm - N/A   Clear
11:15 PM 23.0 °F - 20.3 °F 89% 30.18 in 10.0 mi Calm Calm - N/A   Clear
11:35 PM 23.7 °F - 20.3 °F 87% 30.17 in 10.0 mi Calm Calm - N/A   Clear
11:55 PM 23.5 °F - 19.9 °F 86% 30.18 in 10.0 mi Calm Calm - N/A   Clear